Time,TemperatureF,DewpointF,PressureIn,WindDirection,WindDirectionDegrees,WindSpeedMPH,WindSpeedGustMPH,Humidity,HourlyPrecipIn,Conditions,Clouds,dailyrainin,SoftwareType,DateUTC
2013-01-11 00:03:00,44.8,42.6,29.79,North,0,0.0,0.0,92,0.00,,,0.00,WUHU21623XXSP,2013-01-11 06:03:00,
2013-01-11 00:08:00,44.8,42.6,29.79,North,0,0.0,0.0,92,0.00,,,0.00,WUHU21623XXSP,2013-01-11 06:08:00,
2013-01-11 00:13:00,44.8,42.6,29.80,North,0,0.0,0.0,92,0.00,,,0.00,WUHU21623XXSP,2013-01-11 06:13:00,
2013-01-11 00:18:00,45.0,42.8,29.80,North,0,0.0,0.0,92,0.00,,,0.00,WUHU21623XXSP,2013-01-11 06:18:00,
2013-01-11 00:23:00,45.0,42.8,29.80,North,0,0.0,0.0,92,0.00,,,0.00,WUHU21623XXSP,2013-01-11 06:23:00,
2013-01-11 00:28:00,45.0,42.8,29.80,North,0,0.0,0.0,92,0.00,,,0.00,WUHU21623XXSP,2013-01-11 06:28:00,
2013-01-11 00:33:00,45.0,42.8,29.80,North,0,0.0,0.0,92,0.00,,,0.00,WUHU21623XXSP,2013-01-11 06:33:00,
2013-01-11 00:38:00,45.0,42.8,29.81,North,0,0.0,0.0,92,0.00,,,0.00,WUHU21623XXSP,2013-01-11 06:38:00,
2013-01-11 00:43:00,45.0,42.8,29.81,North,0,0.0,0.0,92,0.00,,,0.00,WUHU21623XXSP,2013-01-11 06:43:00,
2013-01-11 00:48:00,45.0,42.8,29.81,North,0,0.0,0.0,92,0.00,,,0.00,WUHU21623XXSP,2013-01-11 06:48:00,
2013-01-11 00:53:00,45.0,42.8,29.80,North,0,0.0,0.0,92,0.00,,,0.00,WUHU21623XXSP,2013-01-11 06:53:00,
2013-01-11 00:58:00,45.0,42.8,29.81,North,0,0.0,0.0,92,0.00,,,0.00,WUHU21623XXSP,2013-01-11 06:58:00,
2013-01-11 01:03:00,45.1,43.0,29.80,North,0,0.0,0.0,92,0.00,,,0.00,WUHU21623XXSP,2013-01-11 07:03:00,
2013-01-11 01:08:00,45.1,43.0,29.80,North,0,0.0,0.0,92,0.00,,,0.00,WUHU21623XXSP,2013-01-11 07:08:00,
2013-01-11 01:13:00,45.1,43.0,29.80,North,0,0.0,0.0,92,0.00,,,0.00,WUHU21623XXSP,2013-01-11 07:13:00,
2013-01-11 01:18:00,45.1,43.0,29.80,North,0,0.0,0.0,92,0.00,,,0.00,WUHU21623XXSP,2013-01-11 07:18:00,
2013-01-11 01:23:00,45.3,43.2,29.80,North,0,0.0,0.0,92,0.00,,,0.00,WUHU21623XXSP,2013-01-11 07:23:00,
2013-01-11 01:28:00,45.3,43.2,29.80,North,0,0.0,0.0,92,0.00,,,0.00,WUHU21623XXSP,2013-01-11 07:28:00,
2013-01-11 01:33:00,45.3,43.2,29.80,North,0,0.0,0.0,92,0.00,,,0.00,WUHU21623XXSP,2013-01-11 07:33:00,
2013-01-11 01:38:00,45.5,43.3,29.80,North,0,0.0,0.0,92,0.00,,,0.00,WUHU21623XXSP,2013-01-11 07:38:00,
2013-01-11 01:43:00,45.5,43.3,29.80,North,0,0.0,0.0,92,0.00,,,0.00,WUHU21623XXSP,2013-01-11 07:43:00,
2013-01-11 01:48:00,45.3,43.3,29.80,North,0,0.0,0.0,92,0.00,,,0.00,WUHU21623XXSP,2013-01-11 07:48:00,
2013-01-11 01:53:00,45.3,43.2,29.81,North,0,0.0,0.0,92,0.00,,,0.00,WUHU21623XXSP,2013-01-11 07:53:00,
2013-01-11 01:58:00,45.5,43.3,29.81,North,0,0.0,0.0,92,0.00,,,0.00,WUHU21623XXSP,2013-01-11 07:58:00,
2013-01-11 02:03:00,45.5,43.3,29.80,North,0,0.0,0.0,92,0.00,,,0.00,WUHU21623XXSP,2013-01-11 08:03:00,
2013-01-11 02:08:00,45.7,43.8,29.80,North,0,0.0,0.0,93,0.00,,,0.00,WUHU21623XXSP,2013-01-11 08:08:00,
2013-01-11 02:13:00,45.7,43.8,29.81,North,0,0.0,0.0,93,0.00,,,0.00,WUHU21623XXSP,2013-01-11 08:13:00,
2013-01-11 02:18:00,45.7,43.8,29.81,North,0,0.0,0.0,93,0.00,,,0.00,WUHU21623XXSP,2013-01-11 08:18:00,
2013-01-11 02:23:00,45.7,43.8,29.81,North,0,0.0,0.0,93,0.00,,,0.00,WUHU21623XXSP,2013-01-11 08:23:00,
2013-01-11 02:28:00,45.7,43.8,29.81,North,0,0.0,0.0,93,0.00,,,0.00,WUHU21623XXSP,2013-01-11 08:28:00,
2013-01-11 02:33:00,45.7,43.8,29.81,North,0,0.0,0.0,93,0.00,,,0.00,WUHU21623XXSP,2013-01-11 08:33:00,
2013-01-11 02:38:00,45.7,43.8,29.82,North,0,0.0,0.0,93,0.00,,,0.00,WUHU21623XXSP,2013-01-11 08:38:00,
2013-01-11 02:43:00,45.7,43.8,29.82,North,0,0.0,0.0,93,0.00,,,0.00,WUHU21623XXSP,2013-01-11 08:43:00,
2013-01-11 02:48:00,46.0,44.1,29.82,North,0,0.0,0.0,93,0.00,,,0.00,WUHU21623XXSP,2013-01-11 08:48:00,
2013-01-11 02:53:00,46.0,44.1,29.82,North,0,0.0,0.0,93,0.00,,,0.00,WUHU21623XXSP,2013-01-11 08:53:00,
2013-01-11 02:58:00,46.2,44.3,29.82,North,0,0.0,0.0,93,0.00,,,0.00,WUHU21623XXSP,2013-01-11 08:58:00,
2013-01-11 03:03:00,46.2,44.3,29.82,North,0,0.0,0.0,93,0.00,,,0.00,WUHU21623XXSP,2013-01-11 09:03:00,
2013-01-11 03:08:00,46.6,44.7,29.82,North,0,0.0,0.0,93,0.00,,,0.00,WUHU21623XXSP,2013-01-11 09:08:00,
2013-01-11 03:13:00,46.6,44.7,29.82,North,0,0.0,0.0,93,0.00,,,0.00,WUHU21623XXSP,2013-01-11 09:13:00,
2013-01-11 03:18:00,46.8,44.9,29.82,North,0,0.0,0.0,93,0.00,,,0.00,WUHU21623XXSP,2013-01-11 09:18:00,
2013-01-11 03:23:00,46.8,44.9,29.82,North,0,0.0,0.0,93,0.00,,,0.00,WUHU21623XXSP,2013-01-11 09:23:00,
2013-01-11 03:28:00,46.8,44.9,29.81,North,0,0.0,0.0,93,0.00,,,0.00,WUHU21623XXSP,2013-01-11 09:28:00,
2013-01-11 03:33:00,46.8,44.9,29.81,North,0,0.0,0.0,93,0.00,,,0.00,WUHU21623XXSP,2013-01-11 09:33:00,
2013-01-11 03:38:00,46.9,45.0,29.81,North,0,0.0,0.0,93,0.00,,,0.00,WUHU21623XXSP,2013-01-11 09:38:00,
2013-01-11 03:43:00,46.9,45.0,29.81,North,0,0.0,0.0,93,0.00,,,0.00,WUHU21623XXSP,2013-01-11 09:43:00,
2013-01-11 03:48:00,47.1,45.2,29.81,North,0,0.0,0.0,93,0.00,,,0.00,WUHU21623XXSP,2013-01-11 09:48:00,
2013-01-11 03:53:00,47.1,45.2,29.81,North,0,0.0,0.0,93,0.00,,,0.00,WUHU21623XXSP,2013-01-11 09:53:00,
2013-01-11 03:58:00,47.3,45.4,29.80,North,0,0.0,0.0,93,0.00,,,0.00,WUHU21623XXSP,2013-01-11 09:58:00,
2013-01-11 04:03:00,47.5,45.4,29.80,North,0,0.0,0.0,93,0.00,,,0.00,WUHU21623XXSP,2013-01-11 10:03:00,
2013-01-11 04:08:00,47.5,45.6,29.80,North,0,0.0,0.0,93,0.00,,,0.00,WUHU21623XXSP,2013-01-11 10:08:00,
2013-01-11 04:13:00,47.5,45.6,29.80,North,0,0.0,0.0,93,0.00,,,0.00,WUHU21623XXSP,2013-01-11 10:13:00,
2013-01-11 04:18:00,47.5,45.6,29.80,North,0,0.0,0.0,93,0.00,,,0.00,WUHU21623XXSP,2013-01-11 10:18:00,
2013-01-11 04:23:00,47.5,45.6,29.80,North,0,0.0,0.0,93,0.00,,,0.00,WUHU21623XXSP,2013-01-11 10:23:00,
2013-01-11 04:28:00,47.5,45.6,29.79,North,0,0.0,0.0,93,0.00,,,0.00,WUHU21623XXSP,2013-01-11 10:28:00,
2013-01-11 04:33:00,47.5,45.6,29.79,North,0,0.0,0.0,93,0.00,,,0.00,WUHU21623XXSP,2013-01-11 10:33:00,
2013-01-11 04:38:00,47.5,45.6,29.80,North,0,0.0,0.0,93,0.00,,,0.00,WUHU21623XXSP,2013-01-11 10:38:00,
2013-01-11 04:44:00,47.1,45.2,29.80,North,0,0.0,0.0,93,0.00,,,0.00,WUHU21623XXSP,2013-01-11 10:44:00,
2013-01-11 04:49:00,47.1,45.2,29.80,North,0,0.0,0.0,93,0.00,,,0.00,WUHU21623XXSP,2013-01-11 10:49:00,
2013-01-11 04:54:00,47.1,45.2,29.80,North,0,0.0,0.0,93,0.00,,,0.00,WUHU21623XXSP,2013-01-11 10:54:00,
2013-01-11 04:59:00,47.1,45.2,29.80,North,0,0.0,0.0,93,0.00,,,0.00,WUHU21623XXSP,2013-01-11 10:59:00,
2013-01-11 05:04:00,47.1,45.2,29.80,North,0,0.0,0.0,93,0.00,,,0.00,WUHU21623XXSP,2013-01-11 11:04:00,
2013-01-11 05:09:00,47.3,45.4,29.79,North,0,0.0,0.0,93,0.00,,,0.00,WUHU21623XXSP,2013-01-11 11:09:00,
2013-01-11 05:14:00,47.1,45.2,29.80,North,0,0.0,0.0,93,0.00,,,0.00,WUHU21623XXSP,2013-01-11 11:14:00,
2013-01-11 05:19:00,47.1,45.2,29.80,North,0,0.0,0.0,93,0.00,,,0.00,WUHU21623XXSP,2013-01-11 11:19:00,
2013-01-11 05:24:00,47.1,45.2,29.81,North,0,0.0,0.0,93,0.00,,,0.00,WUHU21623XXSP,2013-01-11 11:24:00,
2013-01-11 05:29:00,47.3,45.4,29.81,North,0,0.0,0.0,93,0.00,,,0.00,WUHU21623XXSP,2013-01-11 11:29:00,
2013-01-11 05:34:00,47.3,45.4,29.81,North,0,0.0,0.0,93,0.00,,,0.00,WUHU21623XXSP,2013-01-11 11:34:00,
2013-01-11 05:39:00,47.5,45.6,29.81,North,0,0.0,0.0,93,0.00,,,0.00,WUHU21623XXSP,2013-01-11 11:39:00,
2013-01-11 05:44:00,47.5,45.6,29.82,North,0,0.0,0.0,93,0.00,,,0.00,WUHU21623XXSP,2013-01-11 11:44:00,
2013-01-11 05:49:00,47.5,45.6,29.81,North,0,0.0,0.0,93,0.00,,,0.00,WUHU21623XXSP,2013-01-11 11:49:00,
2013-01-11 05:54:00,47.5,45.6,29.81,North,0,0.0,0.0,93,0.00,,,0.00,WUHU21623XXSP,2013-01-11 11:54:00,
2013-01-11 05:59:00,47.7,45.8,29.81,North,0,0.0,0.0,93,0.00,,,0.00,WUHU21623XXSP,2013-01-11 11:59:00,
2013-01-11 06:04:00,47.8,46.0,29.81,North,0,0.0,0.0,93,0.00,,,0.00,WUHU21623XXSP,2013-01-11 12:04:00,
2013-01-11 06:09:00,47.8,46.2,29.81,North,0,0.0,0.0,94,0.00,,,0.00,WUHU21623XXSP,2013-01-11 12:09:00,
2013-01-11 06:14:00,48.0,46.4,29.82,North,0,0.0,0.0,94,0.00,,,0.00,WUHU21623XXSP,2013-01-11 12:14:00,
2013-01-11 06:19:00,48.0,46.4,29.83,North,0,0.0,0.0,94,0.00,,,0.00,WUHU21623XXSP,2013-01-11 12:19:00,
2013-01-11 06:24:00,48.0,46.4,29.83,North,0,0.0,0.0,94,0.00,,,0.00,WUHU21623XXSP,2013-01-11 12:24:00,
2013-01-11 06:29:00,48.0,46.4,29.82,North,0,0.0,0.0,94,0.00,,,0.00,WUHU21623XXSP,2013-01-11 12:29:00,
2013-01-11 06:34:00,48.2,46.6,29.83,North,0,0.0,0.0,94,0.00,,,0.00,WUHU21623XXSP,2013-01-11 12:34:00,
2013-01-11 06:39:00,48.2,46.6,29.82,North,0,0.0,0.0,94,0.00,,,0.00,WUHU21623XXSP,2013-01-11 12:39:00,
2013-01-11 06:44:00,48.4,46.7,29.82,North,0,0.0,0.0,94,0.00,,,0.00,WUHU21623XXSP,2013-01-11 12:44:00,
2013-01-11 06:49:00,48.4,46.7,29.82,North,0,0.0,0.0,94,0.00,,,0.00,WUHU21623XXSP,2013-01-11 12:49:00,
2013-01-11 06:54:00,48.4,46.5,29.82,North,0,0.0,0.0,93,0.00,,,0.00,WUHU21623XXSP,2013-01-11 12:54:00,
2013-01-11 06:59:00,48.4,46.5,29.83,North,0,0.0,0.0,93,0.00,,,0.00,WUHU21623XXSP,2013-01-11 12:59:00,
2013-01-11 07:04:00,48.4,46.5,29.83,North,0,0.0,0.0,93,0.00,,,0.00,WUHU21623XXSP,2013-01-11 13:04:00,
2013-01-11 07:09:00,48.4,46.5,29.83,North,0,0.0,0.0,93,0.00,,,0.00,WUHU21623XXSP,2013-01-11 13:09:00,
2013-01-11 07:14:00,48.6,46.5,29.83,North,0,0.0,0.0,93,0.00,,,0.00,WUHU21623XXSP,2013-01-11 13:14:00,
2013-01-11 07:19:00,48.6,46.6,29.83,North,0,0.0,0.0,93,0.00,,,0.00,WUHU21623XXSP,2013-01-11 13:19:00,
2013-01-11 07:24:00,48.4,46.5,29.83,North,0,0.0,0.0,93,0.00,,,0.00,WUHU21623XXSP,2013-01-11 13:24:00,
2013-01-11 07:29:00,48.4,46.5,29.83,North,0,0.0,0.0,93,0.00,,,0.00,WUHU21623XXSP,2013-01-11 13:29:00,
2013-01-11 07:34:00,48.4,46.5,29.83,North,0,0.0,0.0,93,0.00,,,0.00,WUHU21623XXSP,2013-01-11 13:34:00,
2013-01-11 07:39:00,48.4,46.5,29.84,North,0,0.0,0.0,93,0.00,,,0.00,WUHU21623XXSP,2013-01-11 13:39:00,
2013-01-11 07:44:00,48.6,46.6,29.84,North,0,0.0,0.0,93,0.00,,,0.00,WUHU21623XXSP,2013-01-11 13:44:00,
2013-01-11 07:49:00,48.6,46.6,29.84,North,0,0.0,0.0,93,0.00,,,0.00,WUHU21623XXSP,2013-01-11 13:49:00,
2013-01-11 07:54:00,48.7,46.8,29.84,North,0,0.0,0.0,93,0.00,,,0.00,WUHU21623XXSP,2013-01-11 13:54:00,
2013-01-11 07:59:00,48.7,46.8,29.84,North,0,0.0,0.0,93,0.00,,,0.00,WUHU21623XXSP,2013-01-11 13:59:00,
2013-01-11 08:04:00,48.7,46.8,29.83,North,0,0.0,0.0,93,0.00,,,0.00,WUHU21623XXSP,2013-01-11 14:04:00,
2013-01-11 08:09:00,48.9,47.0,29.84,North,0,0.0,0.0,93,0.00,,,0.00,WUHU21623XXSP,2013-01-11 14:09:00,
2013-01-11 08:14:00,48.9,47.0,29.84,North,0,0.0,0.0,93,0.00,,,0.00,WUHU21623XXSP,2013-01-11 14:14:00,
2013-01-11 08:19:00,49.1,46.9,29.83,North,0,0.0,0.0,92,0.00,,,0.00,WUHU21623XXSP,2013-01-11 14:19:00,
2013-01-11 08:24:00,49.1,46.9,29.83,North,0,0.0,0.0,92,0.00,,,0.00,WUHU21623XXSP,2013-01-11 14:24:00,
2013-01-11 08:29:00,49.1,46.9,29.83,North,0,0.0,0.0,92,0.00,,,0.00,WUHU21623XXSP,2013-01-11 14:29:00,
2013-01-11 08:34:00,49.1,47.0,29.83,North,0,0.0,0.0,92,0.00,,,0.00,WUHU21623XXSP,2013-01-11 14:34:00,
2013-01-11 08:39:00,49.3,47.0,29.83,North,0,0.0,0.0,92,0.00,,,0.00,WUHU21623XXSP,2013-01-11 14:39:00,
2013-01-11 08:44:00,49.3,47.0,29.82,North,0,0.0,0.0,92,0.00,,,0.00,WUHU21623XXSP,2013-01-11 14:44:00,
2013-01-11 08:49:00,49.3,47.0,29.82,North,0,0.0,0.0,92,0.00,,,0.00,WUHU21623XXSP,2013-01-11 14:49:00,
2013-01-11 08:54:00,49.6,47.4,29.82,North,0,0.0,0.0,92,0.00,,,0.00,WUHU21623XXSP,2013-01-11 14:54:00,
2013-01-11 08:59:00,49.6,47.4,29.83,North,0,0.0,0.0,92,0.00,,,0.00,WUHU21623XXSP,2013-01-11 14:59:00,
2013-01-11 09:04:00,49.8,47.5,29.83,North,0,0.0,0.0,92,0.00,,,0.00,WUHU21623XXSP,2013-01-11 15:04:00,
2013-01-11 09:09:00,49.8,47.5,29.83,North,0,0.0,0.0,92,0.00,,,0.00,WUHU21623XXSP,2013-01-11 15:09:00,
2013-01-11 09:14:00,50.2,47.9,29.82,North,0,0.0,0.0,92,0.00,,,0.00,WUHU21623XXSP,2013-01-11 15:14:00,
2013-01-11 09:19:00,50.5,48.2,29.82,North,0,0.0,0.0,92,0.00,,,0.00,WUHU21623XXSP,2013-01-11 15:19:00,
2013-01-11 09:24:00,51.1,48.3,29.82,North,0,0.0,0.0,91,0.00,,,0.00,WUHU21623XXSP,2013-01-11 15:24:00,
2013-01-11 09:29:00,51.4,48.8,29.82,North,0,0.0,0.0,91,0.00,,,0.00,WUHU21623XXSP,2013-01-11 15:29:00,
2013-01-11 09:34:00,52.0,49.0,29.82,North,0,0.0,0.0,91,0.00,,,0.00,WUHU21623XXSP,2013-01-11 15:34:00,
2013-01-11 09:39:00,52.5,49.9,29.82,North,0,0.0,0.0,91,0.00,,,0.00,WUHU21623XXSP,2013-01-11 15:39:00,
2013-01-11 09:44:00,52.9,49.8,29.82,North,0,0.0,0.0,90,0.00,,,0.00,WUHU21623XXSP,2013-01-11 15:44:00,
2013-01-11 09:49:00,53.2,50.4,29.82,North,0,0.0,0.0,90,0.00,,,0.00,WUHU21623XXSP,2013-01-11 15:49:00,
2013-01-11 09:54:00,53.8,50.6,29.81,North,0,0.0,0.0,89,0.00,,,0.00,WUHU21623XXSP,2013-01-11 15:54:00,
2013-01-11 09:59:00,54.0,50.8,29.82,North,0,0.0,0.0,89,0.00,,,0.00,WUHU21623XXSP,2013-01-11 15:59:00,
2013-01-11 10:04:00,54.3,50.8,29.82,North,0,0.0,0.0,88,0.00,,,0.00,WUHU21623XXSP,2013-01-11 16:04:00,
2013-01-11 10:09:00,54.7,50.8,29.82,North,0,0.0,0.0,87,0.00,,,0.00,WUHU21623XXSP,2013-01-11 16:09:00,
2013-01-11 10:14:00,55.0,51.2,29.82,North,0,0.0,0.0,87,0.00,,,0.00,WUHU21623XXSP,2013-01-11 16:14:00,
2013-01-11 10:19:00,55.2,51.0,29.82,North,0,0.0,0.0,86,0.00,,,0.00,WUHU21623XXSP,2013-01-11 16:19:00,
2013-01-11 10:24:00,55.0,50.7,29.81,North,0,0.0,0.0,85,0.00,,,0.00,WUHU21623XXSP,2013-01-11 16:24:00,
2013-01-11 10:29:00,54.9,50.1,29.81,North,0,0.0,0.0,84,0.00,,,0.00,WUHU21623XXSP,2013-01-11 16:29:00,
2013-01-11 10:34:00,54.7,49.9,29.81,North,0,0.0,0.0,84,0.00,,,0.00,WUHU21623XXSP,2013-01-11 16:34:00,
2013-01-11 10:39:00,54.5,49.7,29.81,North,0,0.0,0.0,84,0.00,,,0.00,WUHU21623XXSP,2013-01-11 16:39:00,
2013-01-11 10:44:00,54.9,50.1,29.81,North,0,0.0,0.0,84,0.00,,,0.00,WUHU21623XXSP,2013-01-11 16:44:00,
2013-01-11 10:49:00,55.2,50.4,29.81,North,0,0.0,0.0,84,0.00,,,0.00,WUHU21623XXSP,2013-01-11 16:49:00,
2013-01-11 10:54:00,56.3,51.2,29.79,North,0,0.0,0.0,83,0.00,,,0.00,WUHU21623XXSP,2013-01-11 16:54:00,
2013-01-11 10:59:00,56.7,51.2,29.79,North,0,0.0,0.0,82,0.00,,,0.00,WUHU21623XXSP,2013-01-11 16:59:00,
2013-01-11 11:04:00,56.8,51.0,29.79,North,0,0.0,0.0,81,0.00,,,0.00,WUHU21623XXSP,2013-01-11 17:04:00,
2013-01-11 11:09:00,57.0,51.0,29.78,North,0,0.0,0.0,80,0.00,,,0.00,WUHU21623XXSP,2013-01-11 17:09:00,
2013-01-11 11:14:00,57.4,50.9,29.79,North,0,0.0,0.0,80,0.00,,,0.00,WUHU21623XXSP,2013-01-11 17:14:00,
2013-01-11 11:19:00,57.6,51.1,29.78,North,0,0.0,0.0,79,0.00,,,0.00,WUHU21623XXSP,2013-01-11 17:19:00,
2013-01-11 11:24:00,57.6,51.1,29.79,North,0,0.0,0.0,79,0.00,,,0.00,WUHU21623XXSP,2013-01-11 17:24:00,
2013-01-11 11:29:00,57.4,50.9,29.79,North,0,0.0,0.0,79,0.00,,,0.00,WUHU21623XXSP,2013-01-11 17:29:00,
2013-01-11 11:34:00,57.4,50.5,29.78,North,0,0.0,0.0,78,0.00,,,0.00,WUHU21623XXSP,2013-01-11 17:34:00,
2013-01-11 11:39:00,57.4,50.5,29.78,North,0,0.0,0.0,78,0.00,,,0.00,WUHU21623XXSP,2013-01-11 17:39:00,
2013-01-11 11:44:00,57.6,50.4,29.77,North,0,0.0,0.0,77,0.00,,,0.00,WUHU21623XXSP,2013-01-11 17:44:00,
2013-01-11 11:49:00,57.7,50.5,29.77,North,0,0.0,0.0,77,0.00,,,0.00,WUHU21623XXSP,2013-01-11 17:49:00,
2013-01-11 11:54:00,58.1,50.5,29.76,North,0,0.0,0.0,76,0.00,,,0.00,WUHU21623XXSP,2013-01-11 17:54:00,
2013-01-11 11:59:00,58.5,50.5,29.76,North,0,0.0,0.0,75,0.00,,,0.00,WUHU21623XXSP,2013-01-11 17:59:00,
2013-01-11 12:04:00,58.8,50.9,29.76,North,0,0.0,0.0,75,0.00,,,0.00,WUHU21623XXSP,2013-01-11 18:04:00,
2013-01-11 12:09:00,58.8,50.5,29.76,North,0,0.0,0.0,74,0.00,,,0.00,WUHU21623XXSP,2013-01-11 18:09:00,
2013-01-11 12:14:00,58.8,50.5,29.75,North,0,0.0,0.0,74,0.00,,,0.00,WUHU21623XXSP,2013-01-11 18:14:00,
2013-01-11 12:19:00,58.8,50.5,29.75,North,0,0.0,0.0,74,0.00,,,0.00,WUHU21623XXSP,2013-01-11 18:19:00,
2013-01-11 12:24:00,58.8,50.2,29.74,North,0,0.0,0.0,73,0.00,,,0.00,WUHU21623XXSP,2013-01-11 18:24:00,
2013-01-11 12:29:00,58.8,50.2,29.74,North,0,0.0,0.0,73,0.00,,,0.00,WUHU21623XXSP,2013-01-11 18:29:00,
2013-01-11 12:34:00,59.5,50.5,29.74,North,0,0.0,0.0,72,0.00,,,0.00,WUHU21623XXSP,2013-01-11 18:34:00,
2013-01-11 12:39:00,59.7,50.7,29.74,North,0,0.0,0.0,72,0.00,,,0.00,WUHU21623XXSP,2013-01-11 18:39:00,
2013-01-11 12:44:00,59.7,50.4,29.73,North,0,0.0,0.0,71,0.00,,,0.00,WUHU21623XXSP,2013-01-11 18:44:00,
2013-01-11 12:49:00,59.5,50.2,29.74,North,0,0.0,0.0,71,0.00,,,0.00,WUHU21623XXSP,2013-01-11 18:49:00,
2013-01-11 12:54:00,59.5,50.2,29.74,North,0,0.0,0.0,71,0.00,,,0.00,WUHU21623XXSP,2013-01-11 18:54:00,
2013-01-11 12:59:00,59.5,50.2,29.74,North,0,0.0,0.0,71,0.00,,,0.00,WUHU21623XXSP,2013-01-11 18:59:00,
2013-01-11 13:04:00,59.7,50.4,29.74,North,0,0.0,0.0,71,0.00,,,0.00,WUHU21623XXSP,2013-01-11 19:04:00,
2013-01-11 13:09:00,60.1,50.4,29.74,North,0,0.0,0.0,70,0.00,,,0.00,WUHU21623XXSP,2013-01-11 19:09:00,
2013-01-11 13:14:00,60.1,50.4,29.73,North,0,0.0,0.0,70,0.00,,,0.00,WUHU21623XXSP,2013-01-11 19:14:00,
2013-01-11 13:19:00,60.1,50.4,29.73,North,0,0.0,0.0,70,0.00,,,0.00,WUHU21623XXSP,2013-01-11 19:19:00,
2013-01-11 13:24:00,60.1,49.9,29.73,North,0,0.0,0.0,69,0.00,,,0.00,WUHU21623XXSP,2013-01-11 19:24:00,
2013-01-11 13:29:00,60.1,49.9,29.73,North,0,0.0,0.0,69,0.00,,,0.00,WUHU21623XXSP,2013-01-11 19:29:00,
2013-01-11 13:34:00,60.4,50.1,29.73,North,0,0.0,0.0,69,0.00,,,0.00,WUHU21623XXSP,2013-01-11 19:34:00,
2013-01-11 13:39:00,60.6,50.5,29.72,North,0,0.0,0.0,69,0.00,,,0.00,WUHU21623XXSP,2013-01-11 19:39:00,
2013-01-11 13:44:00,61.0,50.8,29.72,North,0,0.0,0.0,69,0.00,,,0.00,WUHU21623XXSP,2013-01-11 19:44:00,
2013-01-11 13:49:00,61.5,50.9,29.72,North,0,0.0,0.0,68,0.00,,,0.00,WUHU21623XXSP,2013-01-11 19:49:00,
2013-01-11 13:54:00,61.9,51.2,29.72,North,0,0.0,0.0,68,0.00,,,0.00,WUHU21623XXSP,2013-01-11 19:54:00,
2013-01-11 14:00:00,62.2,51.1,29.72,North,0,0.0,0.0,67,0.00,,,0.00,WUHU21623XXSP,2013-01-11 20:00:00,
2013-01-11 14:05:00,62.6,51.0,29.72,North,0,0.0,0.0,66,0.00,,,0.00,WUHU21623XXSP,2013-01-11 20:05:00,
2013-01-11 14:10:00,63.0,51.2,29.71,North,0,0.0,0.0,65,0.00,,,0.00,WUHU21623XXSP,2013-01-11 20:10:00,
2013-01-11 14:15:00,63.0,50.5,29.71,North,0,0.0,0.0,64,0.00,,,0.00,WUHU21623XXSP,2013-01-11 20:15:00,
2013-01-11 14:20:00,63.0,50.5,29.71,North,0,0.0,0.0,64,0.00,,,0.00,WUHU21623XXSP,2013-01-11 20:20:00,
2013-01-11 14:25:00,63.0,50.5,29.72,North,0,0.0,0.0,64,0.00,,,0.00,WUHU21623XXSP,2013-01-11 20:25:00,
2013-01-11 14:30:00,62.6,49.8,29.72,North,0,0.0,0.0,63,0.00,,,0.00,WUHU21623XXSP,2013-01-11 20:30:00,
2013-01-11 14:35:00,62.4,49.6,29.72,North,0,0.0,0.0,63,0.00,,,0.00,WUHU21623XXSP,2013-01-11 20:35:00,
2013-01-11 14:40:00,62.4,49.6,29.72,North,0,0.0,0.0,63,0.00,,,0.00,WUHU21623XXSP,2013-01-11 20:40:00,
2013-01-11 14:45:00,62.2,49.5,29.72,North,0,0.0,0.0,63,0.00,,,0.00,WUHU21623XXSP,2013-01-11 20:45:00,
2013-01-11 14:50:00,61.9,49.6,29.71,North,0,0.0,0.0,64,0.00,,,0.00,WUHU21623XXSP,2013-01-11 20:50:00,
2013-01-11 14:55:00,61.9,49.6,29.71,North,0,0.0,0.0,64,0.00,,,0.00,WUHU21623XXSP,2013-01-11 20:55:00,
2013-01-11 15:00:00,61.7,49.4,29.71,North,0,0.0,0.0,63,0.00,,,0.00,WUHU21623XXSP,2013-01-11 21:00:00,
2013-01-11 15:05:00,61.5,48.8,29.71,North,0,0.0,0.0,63,0.00,,,0.00,WUHU21623XXSP,2013-01-11 21:05:00,
2013-01-11 15:10:00,61.5,49.2,29.71,North,0,0.0,0.0,64,0.00,,,0.00,WUHU21623XXSP,2013-01-11 21:10:00,
2013-01-11 15:15:00,61.5,48.8,29.71,North,0,0.0,0.0,63,0.00,,,0.00,WUHU21623XXSP,2013-01-11 21:15:00,
2013-01-11 15:20:00,61.5,48.8,29.71,North,0,0.0,0.0,63,0.00,,,0.00,WUHU21623XXSP,2013-01-11 21:20:00,
2013-01-11 15:25:00,61.5,48.8,29.72,North,0,0.0,0.0,63,0.00,,,0.00,WUHU21623XXSP,2013-01-11 21:25:00,
2013-01-11 15:30:00,61.5,48.8,29.71,North,0,0.0,0.0,63,0.00,,,0.00,WUHU21623XXSP,2013-01-11 21:30:00,
2013-01-11 15:35:00,61.2,48.5,29.71,North,0,0.0,0.0,63,0.00,,,0.00,WUHU21623XXSP,2013-01-11 21:35:00,
2013-01-11 15:40:00,61.0,48.3,29.72,North,0,0.0,0.0,63,0.00,,,0.00,WUHU21623XXSP,2013-01-11 21:40:00,
2013-01-11 15:45:00,61.0,48.3,29.72,North,0,0.0,0.0,63,0.00,,,0.00,WUHU21623XXSP,2013-01-11 21:45:00,
2013-01-11 15:50:00,60.6,48.0,29.72,North,0,0.0,0.0,63,0.00,,,0.00,WUHU21623XXSP,2013-01-11 21:50:00,
2013-01-11 15:55:00,60.4,47.8,29.72,North,0,0.0,0.0,63,0.00,,,0.00,WUHU21623XXSP,2013-01-11 21:55:00,
2013-01-11 16:00:00,60.1,47.5,29.72,North,0,0.0,0.0,63,0.00,,,0.00,WUHU21623XXSP,2013-01-11 22:00:00,
2013-01-11 16:05:00,59.9,47.7,29.71,North,0,0.0,0.0,64,0.00,,,0.00,WUHU21623XXSP,2013-01-11 22:05:00,
2013-01-11 16:10:00,59.5,47.5,29.72,North,0,0.0,0.0,64,0.00,,,0.00,WUHU21623XXSP,2013-01-11 22:10:00,
2013-01-11 16:15:00,59.5,47.8,29.71,North,0,0.0,0.0,65,0.00,,,0.00,WUHU21623XXSP,2013-01-11 22:15:00,
2013-01-11 16:20:00,59.0,47.4,29.71,North,0,0.0,0.0,65,0.00,,,0.00,WUHU21623XXSP,2013-01-11 22:20:00,
2013-01-11 16:25:00,59.0,47.2,29.70,North,0,0.0,0.0,65,0.00,,,0.00,WUHU21623XXSP,2013-01-11 22:25:00,
2013-01-11 16:30:00,58.8,47.0,29.70,North,0,0.0,0.0,65,0.00,,,0.00,WUHU21623XXSP,2013-01-11 22:30:00,
2013-01-11 16:35:00,58.8,47.4,29.70,North,0,0.0,0.0,66,0.00,,,0.00,WUHU21623XXSP,2013-01-11 22:35:00,
2013-01-11 16:40:00,58.8,47.4,29.70,North,0,0.0,0.0,66,0.00,,,0.00,WUHU21623XXSP,2013-01-11 22:40:00,
2013-01-11 16:45:00,58.8,47.4,29.70,North,0,0.0,0.0,66,0.00,,,0.00,WUHU21623XXSP,2013-01-11 22:45:00,
2013-01-11 16:50:00,58.6,47.3,29.70,North,0,0.0,0.0,66,0.00,,,0.00,WUHU21623XXSP,2013-01-11 22:50:00,
2013-01-11 16:55:00,58.5,47.1,29.71,North,0,0.0,0.0,66,0.00,,,0.00,WUHU21623XXSP,2013-01-11 22:55:00,
2013-01-11 17:00:00,58.5,46.9,29.71,North,0,0.0,0.0,66,0.00,,,0.00,WUHU21623XXSP,2013-01-11 23:00:00,
2013-01-11 17:05:00,58.3,46.9,29.71,North,0,0.0,0.0,66,0.00,,,0.00,WUHU21623XXSP,2013-01-11 23:05:00,
2013-01-11 17:10:00,58.1,47.2,29.71,North,0,0.0,0.0,67,0.00,,,0.00,WUHU21623XXSP,2013-01-11 23:10:00,
2013-01-11 17:15:00,57.9,47.0,29.71,North,0,0.0,0.0,67,0.00,,,0.00,WUHU21623XXSP,2013-01-11 23:15:00,
2013-01-11 17:20:00,57.9,47.0,29.71,North,0,0.0,0.0,67,0.00,,,0.00,WUHU21623XXSP,2013-01-11 23:20:00,
2013-01-11 17:25:00,57.9,47.0,29.71,North,0,0.0,0.0,67,0.00,,,0.00,WUHU21623XXSP,2013-01-11 23:25:00,
2013-01-11 17:30:00,57.9,47.0,29.71,North,0,0.0,0.0,67,0.00,,,0.00,WUHU21623XXSP,2013-01-11 23:30:00,
2013-01-11 17:35:00,57.9,47.0,29.71,North,0,0.0,0.0,67,0.00,,,0.00,WUHU21623XXSP,2013-01-11 23:35:00,
2013-01-11 17:40:00,57.9,47.0,29.71,North,0,0.0,0.0,67,0.00,,,0.00,WUHU21623XXSP,2013-01-11 23:40:00,
2013-01-11 17:45:00,57.9,47.0,29.71,North,0,0.0,0.0,67,0.00,,,0.00,WUHU21623XXSP,2013-01-11 23:45:00,
2013-01-11 17:50:00,57.9,47.0,29.72,North,0,0.0,0.0,67,0.00,,,0.00,WUHU21623XXSP,2013-01-11 23:50:00,
2013-01-11 17:55:00,57.9,47.0,29.72,North,0,0.0,0.0,67,0.00,,,0.00,WUHU21623XXSP,2013-01-11 23:55:00,
2013-01-11 18:00:00,57.7,46.8,29.72,North,0,0.0,0.0,67,0.00,,,0.00,WUHU21623XXSP,2013-01-12 00:00:00,
2013-01-11 18:05:00,57.7,46.8,29.72,North,0,0.0,0.0,67,0.00,,,0.00,WUHU21623XXSP,2013-01-12 00:05:00,
2013-01-11 18:10:00,57.6,46.6,29.71,North,0,0.0,0.0,67,0.00,,,0.00,WUHU21623XXSP,2013-01-12 00:10:00,
2013-01-11 18:15:00,57.4,46.5,29.71,North,0,0.0,0.0,67,0.00,,,0.00,WUHU21623XXSP,2013-01-12 00:15:00,
2013-01-11 18:20:00,57.2,46.5,29.72,North,0,0.0,0.0,67,0.00,,,0.00,WUHU21623XXSP,2013-01-12 00:20:00,
2013-01-11 18:25:00,57.0,46.3,29.72,North,0,0.0,0.0,67,0.00,,,0.00,WUHU21623XXSP,2013-01-12 00:25:00,
2013-01-11 18:30:00,57.0,46.5,29.72,North,0,0.0,0.0,68,0.00,,,0.00,WUHU21623XXSP,2013-01-12 00:30:00,
2013-01-11 18:35:00,57.0,46.5,29.73,North,0,0.0,0.0,68,0.00,,,0.00,WUHU21623XXSP,2013-01-12 00:35:00,
2013-01-11 18:40:00,57.0,46.5,29.73,North,0,0.0,0.0,68,0.00,,,0.00,WUHU21623XXSP,2013-01-12 00:40:00,
2013-01-11 18:45:00,56.8,46.3,29.72,North,0,0.0,0.0,68,0.00,,,0.00,WUHU21623XXSP,2013-01-12 00:45:00,
2013-01-11 18:50:00,56.8,46.3,29.72,North,0,0.0,0.0,68,0.00,,,0.00,WUHU21623XXSP,2013-01-12 00:50:00,
2013-01-11 18:55:00,56.8,46.3,29.72,North,0,0.0,0.0,68,0.00,,,0.00,WUHU21623XXSP,2013-01-12 00:55:00,
2013-01-11 19:00:00,56.5,46.4,29.72,North,0,0.0,0.0,69,0.00,,,0.00,WUHU21623XXSP,2013-01-12 01:00:00,
2013-01-11 19:05:00,56.5,46.4,29.73,North,0,0.0,0.0,69,0.00,,,0.00,WUHU21623XXSP,2013-01-12 01:05:00,
2013-01-11 19:10:00,56.3,46.3,29.73,North,0,0.0,0.0,69,0.00,,,0.00,WUHU21623XXSP,2013-01-12 01:10:00,
2013-01-11 19:15:00,56.1,46.1,29.72,North,0,0.0,0.0,69,0.00,,,0.00,WUHU21623XXSP,2013-01-12 01:15:00,
2013-01-11 19:20:00,56.1,46.1,29.73,North,0,0.0,0.0,69,0.00,,,0.00,WUHU21623XXSP,2013-01-12 01:20:00,
2013-01-11 19:25:00,55.9,46.3,29.73,North,0,0.0,0.0,70,0.00,,,0.00,WUHU21623XXSP,2013-01-12 01:25:00,
2013-01-11 19:30:00,55.8,46.2,29.73,North,0,0.0,0.0,70,0.00,,,0.00,WUHU21623XXSP,2013-01-12 01:30:00,
2013-01-11 19:35:00,55.8,46.2,29.73,North,0,0.0,0.0,70,0.00,,,0.00,WUHU21623XXSP,2013-01-12 01:35:00,
2013-01-11 19:40:00,55.8,46.2,29.72,North,0,0.0,0.0,70,0.00,,,0.00,WUHU21623XXSP,2013-01-12 01:40:00,
2013-01-11 19:45:00,55.6,46.0,29.73,North,0,0.0,0.0,70,0.00,,,0.00,WUHU21623XXSP,2013-01-12 01:45:00,
2013-01-11 19:50:00,55.6,46.0,29.72,North,0,0.0,0.0,70,0.00,,,0.00,WUHU21623XXSP,2013-01-12 01:50:00,
2013-01-11 19:55:00,55.6,46.0,29.73,North,0,0.0,0.0,70,0.00,,,0.00,WUHU21623XXSP,2013-01-12 01:55:00,
2013-01-11 20:00:00,55.6,46.4,29.72,North,0,0.0,0.0,71,0.00,,,0.00,WUHU21623XXSP,2013-01-12 02:00:00,
2013-01-11 20:05:00,55.6,46.4,29.73,North,0,0.0,0.0,71,0.00,,,0.00,WUHU21623XXSP,2013-01-12 02:05:00,
2013-01-11 20:10:00,55.6,46.4,29.73,North,0,0.0,0.0,71,0.00,,,0.00,WUHU21623XXSP,2013-01-12 02:10:00,
2013-01-11 20:15:00,55.6,46.4,29.74,North,0,0.0,0.0,71,0.00,,,0.00,WUHU21623XXSP,2013-01-12 02:15:00,
2013-01-11 20:20:00,55.6,46.4,29.73,North,0,0.0,0.0,71,0.00,,,0.00,WUHU21623XXSP,2013-01-12 02:20:00,
2013-01-11 20:25:00,55.6,46.4,29.73,North,0,0.0,0.0,71,0.00,,,0.00,WUHU21623XXSP,2013-01-12 02:25:00,
2013-01-11 20:30:00,55.8,46.5,29.73,North,0,0.0,0.0,71,0.00,,,0.00,WUHU21623XXSP,2013-01-12 02:30:00,
2013-01-11 20:35:00,55.8,46.5,29.73,North,0,0.0,0.0,71,0.00,,,0.00,WUHU21623XXSP,2013-01-12 02:35:00,
2013-01-11 20:40:00,55.8,46.5,29.73,North,0,0.0,0.0,71,0.00,,,0.00,WUHU21623XXSP,2013-01-12 02:40:00,
2013-01-11 20:46:00,55.8,46.5,29.74,North,0,0.0,0.0,71,0.00,,,0.00,WUHU21623XXSP,2013-01-12 02:46:00,
2013-01-11 20:51:00,55.8,46.5,29.74,North,0,0.0,0.0,71,0.00,,,0.00,WUHU21623XXSP,2013-01-12 02:51:00,
2013-01-11 20:56:00,55.8,46.5,29.74,North,0,0.0,0.0,71,0.00,,,0.00,WUHU21623XXSP,2013-01-12 02:56:00,
2013-01-11 21:01:00,55.8,46.5,29.74,North,0,0.0,0.0,71,0.00,,,0.00,WUHU21623XXSP,2013-01-12 03:01:00,
2013-01-11 21:06:00,55.8,46.9,29.73,North,0,0.0,0.0,72,0.00,,,0.00,WUHU21623XXSP,2013-01-12 03:06:00,
2013-01-11 21:11:00,55.8,46.9,29.74,North,0,0.0,0.0,72,0.00,,,0.00,WUHU21623XXSP,2013-01-12 03:11:00,
2013-01-11 21:16:00,55.8,46.9,29.74,North,0,0.0,0.0,72,0.00,,,0.00,WUHU21623XXSP,2013-01-12 03:16:00,
2013-01-11 21:21:00,55.8,46.9,29.74,North,0,0.0,0.0,72,0.00,,,0.00,WUHU21623XXSP,2013-01-12 03:21:00,
2013-01-11 21:26:00,55.8,46.9,29.74,North,0,0.0,0.0,72,0.00,,,0.00,WUHU21623XXSP,2013-01-12 03:26:00,
2013-01-11 21:31:00,55.6,46.7,29.75,North,0,0.0,0.0,72,0.00,,,0.00,WUHU21623XXSP,2013-01-12 03:31:00,
2013-01-11 21:36:00,55.6,46.7,29.75,North,0,0.0,0.0,72,0.00,,,0.00,WUHU21623XXSP,2013-01-12 03:36:00,
2013-01-11 21:41:00,55.6,46.7,29.75,North,0,0.0,0.0,72,0.00,,,0.00,WUHU21623XXSP,2013-01-12 03:41:00,
2013-01-11 21:46:00,55.8,46.7,29.75,North,0,0.0,0.0,72,0.00,,,0.00,WUHU21623XXSP,2013-01-12 03:46:00,
2013-01-11 21:51:00,55.8,46.9,29.75,North,0,0.0,0.0,72,0.00,,,0.00,WUHU21623XXSP,2013-01-12 03:51:00,
2013-01-11 21:56:00,55.8,46.9,29.75,North,0,0.0,0.0,72,0.00,,,0.00,WUHU21623XXSP,2013-01-12 03:56:00,
2013-01-11 22:01:00,55.6,46.7,29.75,North,0,0.0,0.0,72,0.00,,,0.00,WUHU21623XXSP,2013-01-12 04:01:00,
2013-01-11 22:06:00,55.8,46.9,29.75,North,0,0.0,0.0,72,0.00,,,0.00,WUHU21623XXSP,2013-01-12 04:06:00,
2013-01-11 22:11:00,55.6,46.7,29.75,North,0,0.0,0.0,72,0.00,,,0.00,WUHU21623XXSP,2013-01-12 04:11:00,
2013-01-11 22:16:00,55.6,46.7,29.76,North,0,0.0,0.0,72,0.00,,,0.00,WUHU21623XXSP,2013-01-12 04:16:00,
2013-01-11 22:21:00,55.6,46.7,29.76,North,0,0.0,0.0,72,0.00,,,0.00,WUHU21623XXSP,2013-01-12 04:21:00,
2013-01-11 22:26:00,55.6,46.7,29.76,North,0,0.0,0.0,72,0.00,,,0.00,WUHU21623XXSP,2013-01-12 04:26:00,
2013-01-11 22:31:00,55.6,46.7,29.76,North,0,0.0,0.0,72,0.00,,,0.00,WUHU21623XXSP,2013-01-12 04:31:00,
2013-01-11 22:36:00,55.6,46.7,29.76,North,0,0.0,0.0,72,0.00,,,0.00,WUHU21623XXSP,2013-01-12 04:36:00,
2013-01-11 22:41:00,55.6,46.7,29.76,North,0,0.0,0.0,72,0.00,,,0.00,WUHU21623XXSP,2013-01-12 04:41:00,
2013-01-11 22:46:00,55.6,46.7,29.76,North,0,0.0,0.0,72,0.00,,,0.00,WUHU21623XXSP,2013-01-12 04:46:00,
2013-01-11 22:51:00,55.6,46.7,29.76,North,0,0.0,0.0,72,0.00,,,0.00,WUHU21623XXSP,2013-01-12 04:51:00,
2013-01-11 22:56:00,55.6,46.7,29.75,North,0,0.0,0.0,72,0.00,,,0.00,WUHU21623XXSP,2013-01-12 04:56:00,
2013-01-11 23:01:00,55.6,46.7,29.76,North,0,0.0,0.0,72,0.00,,,0.00,WUHU21623XXSP,2013-01-12 05:01:00,
2013-01-11 23:04:00,55.6,46.7,29.76,North,0,0.0,0.0,71,0.00,,,0.00,WUHU21623XXSP,2013-01-12 05:04:00,
2013-01-11 23:06:00,55.6,46.4,29.76,North,0,0.0,0.0,71,0.00,,,0.00,WUHU21623XXSP,2013-01-12 05:06:00,
2013-01-11 23:11:00,55.6,46.4,29.76,North,0,0.0,0.0,71,0.00,,,0.00,WUHU21623XXSP,2013-01-12 05:11:00,
2013-01-11 23:16:00,55.6,46.4,29.76,North,0,0.0,0.0,71,0.00,,,0.00,WUHU21623XXSP,2013-01-12 05:16:00,
2013-01-11 23:21:00,55.6,46.4,29.76,North,0,0.0,0.0,71,0.00,,,0.00,WUHU21623XXSP,2013-01-12 05:21:00,
2013-01-11 23:26:00,55.4,46.5,29.76,North,0,0.0,0.0,72,0.00,,,0.00,WUHU21623XXSP,2013-01-12 05:26:00,
2013-01-11 23:31:00,55.2,46.0,29.76,North,0,0.0,0.0,71,0.00,,,0.00,WUHU21623XXSP,2013-01-12 05:31:00,
2013-01-11 23:36:00,55.2,46.4,29.76,North,0,0.0,0.0,72,0.00,,,0.00,WUHU21623XXSP,2013-01-12 05:36:00,
2013-01-11 23:41:00,55.2,46.4,29.76,North,0,0.0,0.0,72,0.00,,,0.00,WUHU21623XXSP,2013-01-12 05:41:00,
2013-01-11 23:46:00,55.2,46.4,29.77,North,0,0.0,0.0,72,0.00,,,0.00,WUHU21623XXSP,2013-01-12 05:46:00,
2013-01-11 23:51:00,55.0,46.2,29.76,North,0,0.0,0.0,72,0.00,,,0.00,WUHU21623XXSP,2013-01-12 05:51:00,
2013-01-11 23:56:00,55.0,46.2,29.77,North,0,0.0,0.0,72,0.00,,,0.00,WUHU21623XXSP,2013-01-12 05:56:00,